Simultaneous Nadir Overpasses (SNOs) Predictions

Prediction of SNOs between GOES-15 and NPP Satellite Orbit:

Table of predicted SNOs for the next 14.0 days since TLE Epoch: 4/22/2016
Index Date Time (GOES-15) GOES-15 Lat,Lon NPP Lat,Lon Distance(km) Time Diff (sec)
1 04/23/2016 10:40:39 0.06,-135.39 0.65,-138.19 318.41 80
2 04/24/2016 10:19:14 0.06,-135.38 -0.30,-133.65 197.01 80
3 04/25/2016 22:41:11 -0.06,-135.36 -0.84,-138.97 409.81 80
4 04/26/2016 22:25:06 -0.06,-135.35 0.17,-134.44 105.50 80
5 04/28/2016 10:46:54 0.06,-135.34 1.06,-139.70 496.80 80
6 04/29/2016 10:25:29 0.06,-135.33 0.05,-135.17 17.93 80
7 05/01/2016 22:28:41 -0.07,-135.28 -0.22,-135.94 76.34 80
8 05/02/2016 22:12:37 -0.07,-135.26 0.79,-131.41 438.00 80
9 05/04/2016 10:34:25
